Theta_e
308 308 308 308 308 308 308 308 308 308 308 308 309 309 309 308 308 308 308 308 307 307 307 307 307 307 310 311 312 312 313 313 312 312 313 314 314 313 314 313 315 314 314 316 313 313 313 313 313 313 316 316 316 316 314 320 324 324 330 324 322 327 327 328 328 324 320 323 327 321 316 315 318 319 313 311 313 316 315 317 318 314 313 313 311 309 310 311
309 309 308 308 308 308 308 308 308 309 309 309 309 309 309 309 309 309 309 309 308 308 308 307 307 307 309 311 312 313 313 313 313 314 315 316 316 315 315 313 315 315 314 315 314 313 315 316 311 314 319 317 316 317 316 318 320 330 330 321 326 331 327 326 328 327 320 319 322 320 317 314 316 317 312 314 318 317 316 318 317 316 317 313 309 308 310 311
309 309 309 309 309 309 309 309 309 309 309 309 309 309 309 309 310 310 310 310 309 309 309 308 308 307 308 311 312 312 313 313 314 317 317 317 317 316 316 314 314 315 315 314 314 312 315 315 311 317 321 317 319 319 320 319 319 330 326 323 334 331 323 324 325 324 320 317 319 320 317 314 316 315 312 315 317 317 316 317 316 317 319 316 316 310 308 309
310 310 310 310 310 309 309 309 309 309 309 309 309 309 309 310 310 310 310 311 310 310 310 309 308 308 308 310 312 313 313 313 312 316 317 316 316 316 316 315 314 316 316 314 314 314 314 312 311 319 320 318 322 320 322 323 320 324 323 328 336 325 320 324 323 322 320 315 315 317 315 315 316 313 313 315 315 317 316 316 315 315 317 316 322 316 305 306
310 310 310 310 310 309 309 309 309 309 309 309 309 309 309 309 309 310 310 311 311 311 311 310 310 309 308 310 313 312 314 315 313 316 317 316 316 316 316 315 315 316 316 314 314 314 313 311 312 320 319 318 321 320 325 325 319 321 322 327 330 320 318 322 324 322 319 315 315 316 315 316 314 312 314 315 314 316 316 317 316 315 317 314 318 317 306 307
310 309 309 308 308 308 308 308 308 308 308 308 308 308 308 308 309 309 309 310 310 311 311 311 311 310 308 310 313 313 313 315 314 315 317 316 315 316 316 315 316 316 315 314 313 313 313 313 313 319 319 317 319 320 323 321 316 320 323 323 325 321 319 321 322 321 318 315 316 317 315 314 314 314 316 315 314 315 315 316 318 315 312 309 311 316 317 316
309 308 308 307 307 307 307 307 307 307 307 307 307 307 307 308 308 308 308 309 309 310 310 310 311 310 309 311 314 316 316 315 314 315 315 315 315 317 317 316 316 316 315 313 312 314 315 315 315 318 319 317 319 320 320 318 316 319 322 322 322 320 320 319 318 319 318 316 317 315 313 314 315 315 313 314 314 314 313 313 315 312 306 306 313 321 325 321
310 309 309 308 308 309 308 308 308 308 308 308 308 308 308 308 308 308 308 308 308 308 308 309 310 309 310 312 315 319 319 316 313 314 314 314 316 316 317 317 316 315 313 311 313 314 315 315 315 315 318 317 317 318 316 315 317 320 321 323 321 319 321 320 317 318 319 317 314 312 314 316 314 313 311 312 313 313 313 311 312 311 308 309 313 318 320 318
311 311 310 310 310 310 310 310 309 310 309 309 309 309 309 309 309 309 308 309 308 308 307 307 307 308 310 312 313 317 317 315 313 314 314 316 317 316 316 317 316 315 312 311 312 311 313 316 316 315 317 319 316 316 316 315 319 322 321 321 321 319 320 318 316 316 317 317 313 311 315 314 312 313 312 312 313 312 312 312 312 312 313 312 311 312 315 317
312 312 311 311 311 311 311 311 311 310 310 310 310 310 310 310 310 310 309 310 309 308 308 307 306 308 311 312 312 314 314 315 315 315 316 316 317 316 316 316 316 314 311 311 311 309 312 314 314 314 315 316 314 313 316 315 316 320 319 319 319 316 315 314 314 315 314 314 313 312 315 314 312 312 312 315 318 314 312 315 314 313 315 313 311 310 310 313
312 312 312 312 312 311 311 311 311 311 311 311 311 311 311 311 311 311 311 311 310 310 309 308 306 307 311 313 313 314 314 314 316 315 316 316 316 315 315 315 315 313 311 310 310 310 311 311 310 311 313 314 314 313 315 315 313 314 314 315 316 314 313 312 313 313 311 312 313 312 312 313 312 311 313 314 315 313 313 316 315 314 315 313 311 309 309 310
312 312 312 312 312 312 312 311 311 311 311 311 311 311 310 310 310 311 311 311 311 310 309 308 306 306 310 313 314 313 312 313 314 314 314 315 315 314 313 314 313 312 311 309 309 310 310 310 310 313 314 312 313 313 313 313 311 312 312 314 315 314 313 312 312 314 312 312 314 311 311 314 314 314 314 312 312 312 312 314 315 314 313 312 311 308 308 307
313 313 313 313 312 312 312 311 312 312 311 310 310 310 309 309 309 310 311 311 311 311 310 309 307 308 310 313 313 311 311 312 312 313 313 314 313 312 312 312 311 310 310 309 309 310 309 310 312 314 313 313 315 312 310 312 312 312 313 313 313 313 314 312 313 313 311 313 315 311 311 317 317 315 313 311 311 312 313 314 314 313 312 312 311 309 309 306
314 314 313 313 312 312 312 312 313 314 312 310 309 309 309 308 308 309 310 311 311 310 310 308 307 309 311 313 311 310 311 311 312 312 312 313 312 312 311 310 310 310 310 310 310 312 311 310 311 312 311 313 315 310 311 317 318 314 312 314 314 314 316 315 313 311 310 312 314 311 311 314 313 313 312 312 313 313 313 315 314 313 312 312 312 311 310 308
314 314 313 312 312 312 313 314 315 315 312 311 311 310 309 308 308 308 308 309 310 311 310 309 309 310 312 313 310 311 312 312 312 312 312 313 312 311 311 310 310 310 311 310 311 313 312 310 312 314 313 311 311 313 318 321 325 321 313 316 319 316 317 315 312 312 311 311 310 311 314 313 311 313 313 312 313 314 314 316 316 314 312 311 311 310 311 309
314 313 313 312 312 313 314 314 316 315 313 313 313 311 309 308 309 309 310 309 309 309 309 311 311 310 311 312 310 311 312 312 313 313 313 312 312 312 311 310 310 310 311 310 311 311 311 312 312 313 313 311 313 321 323 320 325 324 314 315 319 316 314 313 313 314 313 312 310 310 313 313 312 314 315 312 310 313 315 315 314 313 311 310 309 309 310 310
313 313 312 313 313 313 314 315 316 316 315 315 312 309 309 310 311 311 310 310 310 311 310 313 312 309 310 310 310 311 310 311 313 313 313 312 312 312 311 310 309 308 309 309 311 310 309 310 310 312 316 315 316 320 320 317 319 320 315 315 317 315 312 312 315 315 312 311 312 312 311 311 311 312 314 312 310 311 311 311 311 310 309 309 309 309 309 309
313 312 313 313 313 314 314 315 317 316 316 315 309 308 311 312 312 311 311 311 312 312 311 312 311 311 314 312 311 311 311 311 312 313 312 311 311 311 311 310 307 307 309 310 310 309 310 312 313 316 318 314 313 315 316 317 316 316 316 315 315 314 313 312 313 313 312 311 312 313 311 310 310 310 310 310 310 310 309 309 309 309 309 309 309 308 309 309
312 312 313 313 313 313 314 316 318 317 317 314 309 309 312 314 313 312 312 312 314 313 313 313 312 315 317 313 310 311 312 312 312 312 311 311 310 310 310 309 309 311 311 313 312 310 314 316 315 316 316 313 312 312 313 315 314 314 314 313 313 312 312 312 311 311 311 310 310 311 310 309 309 309 309 309 309 309 309 309 308 308 309 309 309 309 308 309
312 313 313 313 313 313 314 316 318 318 317 314 309 309 314 317 316 315 314 314 316 314 316 316 313 316 316 312 311 312 313 313 312 312 311 311 310 310 310 308 311 314 312 318 317 311 312 315 315 315 315 314 313 311 312 312 312 311 311 312 312 311 311 310 310 310 310 309 310 310 309 309 309 309 309 308 308 309 309 309 310 310 310 310 310 310 309 309
312 312 313 313 313 313 314 316 317 318 317 313 309 309 312 312 311 313 313 315 313 309 315 317 311 313 313 311 311 312 314 313 313 312 311 311 310 312 313 310 313 313 313 319 316 310 310 313 315 316 314 313 313 312 311 311 311 311 312 312 312 311 310 310 310 310 309 309 310 311 310 309 309 309 309 309 309 309 309 310 311 311 311 311 311 310 310 310
313 312 312 312 313 313 313 315 316 318 318 314 310 308 308 306 307 308 307 311 312 305 310 313 308 310 311 309 310 311 313 314 314 313 310 310 310 314 316 312 315 316 314 315 314 312 312 312 313 312 312 313 314 313 310 311 311 312 312 312 312 311 311 311 311 311 310 310 312 313 311 309 309 310 309 310 310 309 310 310 311 311 311 311 311 311 311 311
317 314 314 313 313 314 313 315 316 318 318 315 311 309 306 306 307 307 306 311 314 310 311 312 309 310 311 310 310 310 312 312 313 313 311 310 312 314 314 312 314 316 315 313 314 315 316 316 313 310 310 311 312 312 311 311 311 312 312 312 313 311 312 313 312 314 313 310 312 312 310 309 310 310 309 310 309 310 310 310 311 311 311 311 311 312 311 312
321 319 318 317 316 315 314 316 316 318 318 314 313 311 309 307 307 307 309 313 316 315 313 311 308 310 312 309 308 311 312 311 312 312 311 312 313 313 313 314 315 314 314 312 314 314 315 318 314 311 310 310 311 312 312 312 312 313 313 312 312 312 312 312 312 314 313 313 314 312 311 313 314 313 314 312 309 310 310 309 310 310 310 311 310 311 311 311
323 322 322 320 319 317 315 317 317 317 318 315 314 314 310 308 306 307 310 314 318 317 312 308 308 311 311 307 308 312 312 312 314 312 309 311 313 312 312 313 314 315 313 312 313 312 313 315 313 312 313 312 311 311 313 315 312 312 313 312 311 311 311 311 313 312 313 318 316 312 314 317 317 317 320 319 314 314 312 310 311 311 310 310 310 311 311 311
324 324 324 323 322 320 319 319 317 317 319 317 315 316 312 307 306 306 309 315 320 318 313 311 310 311 308 307 309 311 314 313 310 309 309 309 310 311 313 312 311 314 314 313 313 311 312 314 312 313 315 315 313 312 314 314 311 313 317 317 312 311 312 313 313 312 317 321 314 313 318 317 316 317 320 320 317 319 317 313 313 311 310 310 311 311 311 311
325 324 324 324 323 323 322 320 317 318 320 319 317 316 312 308 306 306 310 320 324 319 315 312 310 309 308 307 308 312 318 315 308 308 309 309 309 309 312 312 310 311 311 313 314 313 314 313 311 312 313 315 314 312 314 312 312 316 317 320 318 315 315 313 312 312 317 318 313 315 318 317 316 316 318 317 316 320 318 315 314 311 310 311 311 311 312 312
325 324 325 324 323 323 322 321 319 318 320 319 317 316 313 308 307 307 313 327 329 319 315 312 309 310 309 306 307 310 312 310 310 309 306 306 309 309 311 313 313 312 311 312 314 313 314 314 315 314 312 315 314 313 315 312 313 317 314 315 317 316 315 314 314 316 315 316 316 315 315 318 319 315 316 314 313 318 318 315 314 311 312 312 312 313 313 312
323 324 324 324 322 322 321 321 320 319 319 318 317 318 314 308 307 309 318 327 326 315 313 312 309 310 311 307 308 311 308 308 310 310 307 307 309 308 311 313 312 312 311 311 312 311 312 313 315 315 314 315 313 314 318 315 314 315 312 315 316 317 318 316 317 318 317 318 317 316 315 318 320 318 318 315 314 320 319 315 313 312 313 313 313 314 315 313
321 322 323 322 321 321 320 320 320 321 320 318 317 317 313 311 311 317 326 327 320 314 312 311 311 311 311 311 311 311 309 309 309 310 310 310 309 309 309 309 311 315 313 311 313 312 310 308 310 314 315 314 314 314 313 314 315 312 314 319 318 319 320 319 320 318 317 319 318 319 318 317 320 320 320 318 317 320 318 316 317 317 318 318 317 317 317 314
320 321 322 322 321 321 320 320 321 322 321 318 318 316 315 318 320 325 330 323 317 319 314 312 315 314 314 313 314 313 311 311 310 311 313 310 311 312 310 309 313 319 319 314 314 313 309 308 311 315 316 314 315 313 308 310 312 312 318 321 317 320 320 319 322 319 317 321 319 318 316 315 319 318 318 320 318 317 317 318 322 322 323 327 328 325 318 311
319 320 321 322 322 321 321 321 321 321 321 317 317 319 322 324 323 326 328 322 322 323 315 314 315 316 316 314 316 316 312 312 311 312 315 314 314 314 313 316 317 319 323 320 319 318 315 313 312 313 313 312 313 314 312 311 311 311 317 318 314 320 320 318 321 319 319 321 316 313 313 314 317 315 316 318 317 318 316 316 320 322 324 329 329 325 319 311
316 317 319 321 321 320 321 321 321 320 319 316 317 321 324 325 325 326 326 325 326 320 314 315 315 315 316 315 320 318 312 314 312 310 314 314 313 315 317 318 316 316 320 319 319 320 320 318 311 309 312 313 312 314 314 314 313 312 315 317 316 318 319 319 322 320 320 321 314 310 314 316 317 318 319 317 314 317 317 315 317 318 321 322 318 318 317 312
313 314 316 318 319 320 320 320 320 319 317 316 319 323 325 325 325 325 326 328 327 321 317 318 316 317 317 316 322 319 314 319 314 309 312 312 313 318 319 315 311 313 315 314 317 319 321 322 316 314 316 315 311 311 316 319 315 311 314 318 318 321 324 323 326 324 322 324 315 309 315 321 320 320 321 318 316 319 321 320 315 312 314 316 316 317 316 315
311 311 313 314 316 318 319 319 319 318 317 317 320 324 326 326 325 326 328 327 326 323 321 319 318 322 322 321 324 319 316 322 318 313 315 314 316 321 323 317 311 312 314 315 319 318 318 322 321 316 314 313 311 312 318 322 317 312 316 318 315 320 325 321 323 324 320 322 317 313 318 322 317 316 317 317 315 317 320 317 311 312 314 315 317 317 316 321
310 310 311 312 314 315 317 318 318 316 317 319 322 325 325 324 326 327 326 324 324 324 323 324 322 325 327 327 327 320 314 319 319 316 316 316 318 319 321 321 315 311 313 317 321 319 318 322 320 313 311 311 311 312 314 318 317 314 315 317 314 317 320 317 321 322 318 320 320 319 321 320 316 317 318 319 316 314 317 316 312 317 319 316 318 318 320 325
307 308 311 312 313 314 315 317 317 316 317 319 323 325 323 323 325 328 325 321 321 322 323 325 324 327 330 328 327 322 316 318 318 316 319 319 320 319 319 321 316 311 312 316 320 320 320 322 319 314 313 313 309 310 312 313 314 315 317 316 314 315 317 317 320 321 320 321 321 320 322 320 320 321 320 323 322 318 321 321 319 320 320 319 323 327 325 321
307 308 310 312 312 312 314 317 317 315 317 320 322 324 323 322 322 324 324 320 318 319 322 324 324 325 329 327 327 326 321 321 320 318 322 323 322 321 320 319 315 311 311 311 315 320 320 319 319 317 315 315 312 312 314 311 309 313 316 314 314 317 319 318 318 320 320 321 322 321 321 320 320 320 318 321 321 320 321 323 323 320 319 323 328 326 320 315
309 310 311 312 311 312 314 316 316 315 318 321 322 323 322 322 321 323 325 321 319 320 321 323 322 323 325 324 325 326 322 322 322 321 323 323 322 320 318 317 315 312 311 309 312 318 319 318 320 317 313 315 316 315 319 318 312 310 312 313 313 315 317 318 319 320 321 321 323 323 322 321 320 319 318 317 317 319 320 320 321 318 318 324 326 320 316 313
309 311 312 312 312 314 315 315 315 316 320 322 322 322 321 321 321 324 324 320 319 321 321 322 323 321 323 322 321 323 323 323 322 321 323 324 323 320 318 318 316 315 315 313 312 316 318 318 318 317 315 317 317 318 321 322 318 314 314 314 313 313 316 317 316 318 319 319 321 323 323 323 323 321 317 314 314 316 317 316 318 318 318 321 319 314 311 308
307 310 312 313 314 314 315 315 316 317 320 321 320 320 319 319 320 321 321 318 318 321 319 320 323 322 321 322 322 322 323 324 323 321 322 324 324 322 320 319 318 319 318 318 317 318 319 320 320 320 321 321 321 320 319 319 320 318 315 316 315 313 316 317 316 318 318 317 319 321 320 323 328 325 318 315 314 315 316 315 316 318 316 315 312 307 303 301
307 310 311 312 314 315 315 317 318 317 318 320 319 318 318 318 318 318 319 318 318 319 318 318 320 322 321 321 322 322 323 325 324 322 322 323 322 321 320 320 320 321 319 320 321 319 318 319 320 320 320 320 320 319 317 317 318 317 315 317 318 315 314 316 318 318 318 317 317 319 319 322 326 325 318 316 316 314 315 314 313 315 312 308 305 300 298 297
307 308 308 310 313 314 316 318 318 317 318 318 318 317 317 318 318 318 318 318 318 318 318 318 317 318 320 320 320 321 322 322 322 322 323 323 321 320 320 319 318 319 319 319 320 317 315 317 319 319 320 320 319 319 316 313 315 317 316 315 316 315 315 316 317 317 318 318 317 320 321 320 323 324 318 317 317 315 315 313 312 310 304 300 299 297 296 296
303 304 305 308 311 313 315 319 319 318 318 318 317 317 317 317 317 317 317 318 318 318 318 318 317 316 317 318 318 318 320 320 319 320 320 321 320 318 316 316 315 316 317 316 317 316 315 317 319 319 320 320 319 318 316 313 314 317 317 316 314 315 315 315 316 316 316 316 317 319 319 319 324 326 320 317 318 317 314 310 305 301 298 298 298 296 295 295
302 304 304 304 307 310 313 315 316 317 317 317 317 317 317 317 317 317 317 316 317 317 317 317 316 314 313 315 316 315 316 317 318 319 318 319 319 313 310 312 312 312 312 311 312 315 316 317 318 319 320 319 318 317 315 316 316 315 315 317 316 316 316 315 316 316 316 317 317 318 318 316 320 323 319 316 314 311 308 302 297 296 296 296 295 295 295 294
303 305 304 304 306 308 309 310 311 314 315 315 316 315 316 317 316 315 316 316 316 316 315 316 315 314 313 314 315 314 314 315 316 316 315 316 317 310 306 309 309 307 308 307 308 312 314 315 317 317 317 317 317 316 315 317 317 315 315 317 316 316 315 315 316 317 317 317 316 317 317 315 316 317 314 309 305 302 300 296 294 294 293 293 293 293 294 293
301 302 303 306 307 307 307 308 308 311 312 312 314 314 315 315 314 314 315 316 316 315 314 315 314 314 314 314 315 315 314 315 314 314 313 313 313 309 306 308 307 305 305 306 306 310 311 313 315 315 315 316 315 314 314 314 314 315 315 315 315 315 314 314 315 315 316 317 317 316 315 316 316 313 305 299 298 298 296 294 292 292 292 292 292 292 292 293
299 300 302 304 304 305 307 306 305 305 307 309 310 312 313 313 312 313 313 313 314 313 313 313 312 313 314 313 314 314 314 314 313 313 313 309 308 308 309 309 306 303 303 303 305 309 309 309 312 313 312 311 310 309 310 311 311 312 313 314 314 314 314 314 314 314 314 315 316 315 314 316 315 307 298 295 295 295 294 293 291 291 291 291 291 291 292 292
297 298 299 299 300 300 302 301 300 301 303 305 307 309 310 311 310 310 311 311 311 311 312 314 312 310 309 310 311 313 313 313 312 311 308 306 306 307 308 308 305 301 300 301 303 307 308 309 309 308 307 306 306 307 308 308 309 309 310 311 312 312 312 312 312 313 313 313 314 313 314 314 307 299 295 295 294 293 294 293 291 291 291 291 291 292 291 292
297 297 297 297 297 297 299 299 299 300 301 303 305 306 307 308 309 308 308 309 310 310 311 311 307 304 304 305 307 309 308 307 308 307 303 302 305 304 303 305 304 300 299 300 303 306 307 307 306 305 304 304 304 304 305 306 307 307 308 309 309 309 309 308 308 309 309 310 309 310 314 312 300 293 294 294 293 293 293 292 291 291 291 291 291 291 291 292
295 296 296 296 295 296 298 299 299 300 300 302 304 305 306 306 304 303 304 305 305 306 304 302 300 300 301 302 303 304 302 299 300 301 299 299 302 301 300 301 300 299 299 301 303 305 304 304 303 303 302 302 302 302 302 303 304 304 304 304 303 304 304 303 304 305 305 307 308 310 312 307 296 293 293 293 292 293 292 292 292 291 291 291 291 291 291 291
293 294 295 295 294 295 296 296 297 299 299 300 302 302 302 301 298 298 303 302 299 298 297 296 297 298 299 300 300 299 297 296 297 298 298 298 298 297 298 298 298 299 299 299 300 301 301 301 301 301 301 301 301 301 300 300 300 299 300 301 301 301 301 301 303 303 302 303 306 307 304 298 294 293 293 292 292 292 291 292 292 291 291 291 291 291 291 291
Wind_Speed
9 10 10 11 11 11 11 11 11 11 12 12 12 12 12 12 12 12 12 13 13 13 13 14 14 12 9 9 10 9 10 10 9 6 7 10 10 9 10 9 6 6 11 10 7 8 5 3 4 5 4 3 3 1 1 2 2 3 3 3 2 3 4 6 7 7 4 4 6 4 1 2 7 5 1 2 1 3 4 5 6 6 7 9 7 5 3 6
9 9 10 10 10 11 11 11 11 11 11 11 11 11 11 12 12 12 12 12 13 13 14 14 14 13 11 11 10 10 11 11 9 8 7 7 7 8 10 10 8 7 11 11 9 10 6 2 4 6 4 2 2 2 1 1 2 3 3 2 4 6 5 6 8 6 4 4 6 6 3 3 7 4 1 3 6 4 5 8 5 7 11 11 8 6 6 12
9 9 9 10 10 11 11 11 11 11 11 10 10 11 11 11 11 12 12 12 12 13 13 14 14 14 12 11 11 12 12 9 6 5 2 4 4 5 9 11 8 7 11 10 8 10 5 4 8 7 4 1 1 2 2 0 1 2 4 2 6 7 5 5 7 8 7 4 5 8 3 3 6 3 1 3 7 6 7 10 7 8 12 13 8 7 11 15
10 10 10 10 11 11 11 11 11 11 11 10 10 10 10 10 10 11 11 11 12 12 13 13 13 13 12 11 10 11 10 6 2 3 2 4 6 6 5 10 9 8 12 8 5 7 3 5 8 5 4 1 3 3 0 2 2 2 4 5 7 4 3 7 9 9 8 3 4 6 4 6 6 2 3 2 5 9 9 10 11 13 14 13 8 8 12 14
12 11 11 11 11 11 11 11 11 11 11 10 10 10 10 10 10 10 11 11 11 11 12 12 13 12 12 10 8 9 9 5 2 3 1 6 8 7 3 9 10 9 12 9 5 6 5 7 6 5 4 1 2 2 2 4 3 2 4 7 6 5 4 8 7 7 5 3 3 4 5 8 4 1 5 6 5 11 10 8 12 14 13 12 8 8 9 10
13 12 12 12 11 12 12 12 12 11 11 11 11 11 11 11 10 11 11 11 11 11 12 11 12 12 11 8 6 6 4 1 5 3 5 9 8 6 1 8 11 11 13 9 7 8 6 6 4 3 3 0 3 4 4 3 3 3 5 5 6 6 6 6 3 5 4 3 4 4 5 5 5 8 6 9 11 17 14 8 10 11 11 9 5 7 8 11
13 12 12 11 11 11 11 12 12 11 12 11 11 11 11 11 11 12 11 12 11 11 12 11 11 11 9 6 4 4 3 5 11 8 10 10 7 4 2 8 11 12 13 10 9 8 5 6 3 4 4 1 4 6 5 1 2 3 5 5 6 6 9 8 4 3 3 6 8 3 5 8 11 9 2 8 13 18 17 10 9 10 9 7 5 8 11 13
12 12 11 11 10 11 11 11 12 12 12 11 12 12 12 12 12 13 13 13 13 12 12 11 11 10 9 4 1 3 1 10 16 13 12 9 6 4 4 8 12 14 13 12 11 8 6 6 6 4 2 4 4 4 4 1 1 5 7 6 3 4 8 9 6 6 7 8 6 2 8 16 14 6 6 10 14 18 17 12 9 10 9 7 9 11 11 12
11 11 11 11 11 11 11 11 12 12 12 12 12 12 13 13 13 13 13 14 14 13 13 12 12 9 8 2 3 2 5 11 14 11 9 8 7 5 7 8 13 15 13 12 12 11 7 6 6 5 4 4 5 4 3 3 4 7 8 5 3 5 7 7 7 7 8 6 4 3 12 18 9 4 11 13 16 18 13 12 9 7 10 9 10 12 11 12
11 11 11 12 12 12 13 12 12 12 13 13 13 13 14 14 14 14 14 14 14 14 13 12 11 8 6 1 2 4 8 8 8 9 9 8 8 7 9 9 12 16 14 10 12 12 8 8 7 5 4 2 4 4 3 5 4 5 5 6 7 8 8 5 6 8 5 5 7 8 14 17 5 2 9 9 9 8 5 9 7 4 9 10 9 10 10 11
11 12 12 12 12 13 13 13 13 13 14 15 15 15 15 15 15 15 15 14 13 13 12 12 10 7 5 3 3 7 7 7 8 10 10 10 10 9 9 10 13 17 15 9 13 17 11 9 8 5 2 3 3 3 3 5 2 2 1 7 9 7 9 7 7 8 4 4 8 11 11 13 4 1 13 15 6 1 4 10 9 7 10 10 10 9 8 10
11 12 12 12 12 12 13 13 13 14 16 16 17 17 16 16 16 16 16 15 14 13 12 11 9 5 3 2 7 14 14 12 12 12 12 12 10 9 9 11 12 15 15 10 11 17 14 9 9 6 4 3 1 1 4 4 1 1 3 6 11 6 10 10 6 5 6 4 6 9 5 9 6 9 18 18 6 1 6 10 11 11 10 10 9 8 7 10
11 12 12 12 12 12 12 12 14 15 17 17 16 17 17 17 17 17 17 16 15 13 11 9 7 4 2 2 7 14 19 19 18 17 16 14 11 9 10 11 11 12 13 11 7 10 14 12 10 6 4 4 2 2 1 2 1 3 2 1 8 7 9 7 2 1 4 5 7 7 3 6 9 17 20 12 6 5 7 10 12 11 9 10 9 7 8 10
12 12 13 13 12 11 12 13 15 17 17 16 16 17 18 17 17 18 17 16 15 12 9 6 3 4 3 6 7 7 13 17 19 20 18 16 12 8 9 10 10 11 11 10 6 5 10 12 8 3 1 3 3 2 3 5 3 3 2 1 2 2 7 6 3 3 1 3 7 6 5 8 11 19 20 7 5 7 8 11 12 10 9 9 9 7 9 10
12 12 12 12 11 12 13 14 17 19 17 17 18 18 18 17 17 18 16 15 12 8 6 3 6 6 2 8 9 7 9 12 15 19 20 18 14 8 8 10 9 10 9 8 6 5 8 9 6 2 2 1 1 1 3 4 3 2 2 4 2 3 6 11 6 6 7 4 4 6 5 8 11 16 18 5 4 6 7 11 11 11 10 9 10 8 9 11
12 11 11 11 11 12 14 16 19 19 18 19 20 19 18 17 15 13 12 10 7 5 3 4 8 6 1 5 6 7 9 9 11 14 15 18 15 9 9 10 8 8 8 6 6 6 8 7 3 2 1 1 2 3 2 4 4 3 1 5 5 5 4 8 9 6 9 3 2 7 6 7 8 11 14 7 3 7 7 11 12 12 12 10 10 8 10 12
11 11 11 11 12 13 15 18 20 20 20 21 22 20 15 12 9 8 5 1 4 6 6 5 7 5 2 5 5 7 6 8 9 9 10 14 14 11 11 8 5 8 8 4 6 5 3 3 1 0 2 1 2 4 2 3 5 3 1 4 5 7 5 4 9 6 3 5 5 7 8 11 12 10 12 12 8 6 7 12 14 13 13 12 10 9 12 12
10 10 10 11 12 14 16 19 21 22 22 22 22 19 9 5 6 5 4 10 11 8 5 3 5 2 5 6 6 5 1 3 5 4 7 9 11 12 10 7 6 9 8 4 2 3 1 2 2 0 2 1 1 5 4 6 7 7 6 5 4 5 6 6 8 6 2 3 5 5 9 14 15 13 13 15 14 12 14 14 14 14 14 15 13 12 14 13
9 9 10 11 12 14 16 19 21 23 23 23 21 13 3 3 4 6 7 8 6 3 1 2 5 2 4 7 7 4 1 2 3 2 6 10 11 11 8 7 6 7 5 1 1 3 1 3 3 2 2 6 8 9 11 13 12 11 8 5 6 6 7 8 11 8 3 5 6 9 15 15 15 15 15 17 13 13 18 16 13 13 13 15 14 13 13 14
9 10 10 11 13 14 16 18 20 22 23 24 21 10 2 5 3 2 3 1 4 4 2 5 8 4 5 4 2 2 2 3 2 3 9 12 14 11 5 4 6 4 3 4 3 2 3 3 4 5 10 14 14 13 15 15 8 5 4 5 7 8 9 10 13 10 0 3 8 11 17 16 14 16 15 16 13 11 17 20 17 15 14 14 14 15 15 16
9 10 11 12 13 14 16 18 20 21 20 20 19 8 2 2 2 4 5 5 9 10 7 9 11 9 10 8 3 3 1 0 1 4 10 12 14 10 1 2 5 1 2 4 2 1 2 6 7 12 16 12 9 10 12 10 5 5 5 7 7 7 12 11 12 13 1 1 7 8 17 18 13 16 16 14 14 12 16 20 21 20 16 14 14 18 18 15
10 10 11 13 13 15 16 17 19 19 17 16 16 7 1 2 2 4 3 4 10 10 10 11 10 10 15 17 12 4 1 3 3 2 10 10 8 6 2 4 6 4 2 3 2 1 3 6 11 17 11 0 1 5 6 6 6 7 5 6 7 4 9 10 9 11 3 1 7 7 15 16 11 16 18 16 17 15 15 18 21 21 17 16 17 17 15 13
12 11 12 12 13 15 14 17 18 15 15 14 11 5 3 4 3 3 1 3 8 5 6 8 8 8 12 16 13 8 5 7 5 5 11 11 3 4 4 6 6 3 4 6 7 6 5 7 13 15 6 2 3 3 6 3 4 6 5 5 8 3 5 8 5 6 4 3 7 9 15 14 10 15 17 18 17 13 14 17 19 18 17 21 20 14 10 12
14 14 13 13 14 14 13 16 15 11 14 11 7 7 7 5 2 2 2 3 5 5 6 8 6 6 7 7 6 10 6 6 4 5 12 13 5 3 4 6 5 3 5 10 11 10 9 7 7 8 7 8 8 2 6 4 5 7 8 7 9 9 10 10 5 7 7 5 4 7 14 12 8 11 11 10 8 9 13 14 16 18 20 20 16 11 9 11
14 14 14 14 15 14 14 15 10 9 14 8 5 11 11 6 2 3 3 2 4 6 6 4 2 4 6 2 5 8 3 2 4 4 11 13 7 4 2 3 4 5 9 10 10 10 10 6 3 4 6 8 8 6 6 7 8 8 7 11 15 14 12 11 8 7 6 5 4 5 9 10 4 8 8 6 2 6 8 10 15 19 19 14 9 10 10 10
13 13 13 14 14 15 13 8 5 10 13 6 6 12 11 5 4 3 3 2 5 4 2 1 1 2 4 3 4 6 3 3 4 1 7 8 6 5 2 1 1 4 8 6 4 5 6 5 5 6 6 7 6 6 7 10 8 8 5 11 15 12 9 11 8 4 2 5 3 4 1 10 5 4 9 8 5 9 9 9 15 16 14 10 8 9 10 9
12 11 12 13 13 14 9 4 5 9 6 4 7 11 10 7 5 4 2 3 6 2 3 2 1 2 2 1 1 5 3 4 2 3 2 1 2 1 2 4 2 2 4 3 2 3 3 3 3 5 5 6 5 6 7 11 6 7 5 7 9 8 9 7 5 4 4 3 3 2 5 7 12 5 5 6 6 8 11 12 15 14 11 11 10 9 10 10
14 13 13 13 12 12 9 7 7 5 3 5 7 8 9 8 5 2 2 3 5 1 3 2 0 2 1 2 3 4 2 2 3 1 2 2 1 2 1 6 5 4 3 4 5 4 4 4 5 6 5 4 7 6 6 11 7 6 3 5 6 6 6 5 5 5 2 4 3 3 5 2 13 6 3 2 4 7 12 15 14 12 10 10 10 10 11 9
16 16 15 14 12 11 12 10 8 5 6 7 6 8 10 8 4 4 3 3 3 2 1 0 1 2 3 2 2 2 1 2 2 2 2 2 1 3 1 5 6 4 4 4 7 5 1 4 6 8 5 6 8 4 7 12 8 4 5 5 4 4 3 5 4 3 3 3 5 5 6 2 12 8 4 4 2 7 11 11 9 8 8 10 10 9 11 8
15 15 16 14 10 9 9 11 12 11 10 8 6 8 10 5 2 2 3 4 2 2 0 1 1 2 4 3 3 4 2 2 1 2 3 1 2 4 1 3 5 3 3 2 6 7 2 0 2 5 4 6 4 2 3 8 5 3 5 5 5 4 4 4 1 4 2 6 5 10 12 6 7 6 4 3 4 6 5 5 7 7 7 10 9 8 9 6
13 13 13 13 12 10 6 6 10 9 10 10 4 5 6 3 1 3 6 2 2 3 1 2 2 3 5 3 2 3 1 2 1 2 1 1 2 4 1 1 3 3 3 4 5 6 3 1 2 3 2 4 5 3 2 2 4 4 3 3 3 4 4 4 4 3 2 7 5 9 12 9 8 5 1 4 6 4 4 4 8 9 7 9 7 6 7 2
11 12 12 13 15 14 9 6 6 5 8 8 1 3 3 2 1 6 4 4 2 2 1 1 2 2 3 1 2 2 0 2 1 3 2 2 2 2 3 4 3 1 4 3 3 5 3 5 5 2 2 5 5 2 3 4 3 4 3 3 1 4 3 2 3 1 4 7 4 5 7 6 12 7 3 9 11 8 8 6 8 9 8 9 7 7 8 4
10 10 12 14 14 15 15 13 10 6 7 7 2 3 4 2 5 3 0 2 2 1 2 1 1 2 1 2 2 2 1 2 2 2 1 2 2 3 4 5 6 2 3 2 2 4 4 4 3 2 3 4 8 5 3 2 4 6 5 5 5 2 2 3 3 2 5 6 3 3 5 4 9 6 8 14 13 9 6 7 9 9 8 8 7 8 9 8
9 9 10 11 13 15 16 16 14 9 8 8 3 2 2 7 5 1 2 5 3 3 1 2 1 1 1 2 3 2 1 2 2 2 0 2 1 3 4 5 4 3 1 2 2 2 4 6 4 6 3 5 10 11 8 4 5 6 5 5 5 5 4 4 4 5 5 3 2 1 3 4 4 2 6 10 8 6 4 6 7 6 7 6 7 8 8 7
11 11 11 11 12 13 14 16 15 11 11 7 2 1 6 8 4 1 4 5 2 4 3 1 1 2 3 3 3 2 2 2 2 3 1 2 2 3 3 4 5 4 2 2 2 2 3 8 6 3 1 8 10 7 5 6 2 4 3 3 3 5 5 4 5 4 2 2 2 3 4 5 4 6 8 7 8 8 7 5 5 6 7 5 6 8 7 6
12 12 12 12 13 14 14 16 15 15 13 6 1 6 8 7 3 3 3 2 2 2 2 4 2 2 4 3 2 2 3 3 1 1 2 2 3 4 4 4 6 9 7 4 2 2 3 7 3 1 1 5 5 1 1 3 2 2 3 3 5 3 5 3 5 1 1 4 6 5 7 7 6 10 7 2 3 5 6 6 5 7 7 6 7 7 6 6
10 11 10 11 14 15 14 16 18 18 11 4 4 8 5 4 5 5 3 2 2 3 2 3 4 3 3 3 3 2 1 3 3 2 2 2 2 3 4 4 4 10 11 6 3 4 5 8 4 4 3 4 1 1 2 1 3 5 3 4 2 1 2 2 2 1 1 7 7 6 13 11 7 9 4 7 6 6 6 7 5 6 6 5 6 6 5 6
6 7 8 11 16 16 14 17 21 16 6 2 8 10 5 4 5 4 4 3 1 2 3 4 4 3 4 4 4 2 3 3 2 2 2 2 3 4 5 4 3 6 6 2 1 3 3 7 6 2 2 3 2 1 2 3 3 5 3 1 2 2 3 1 2 2 4 8 5 7 14 11 8 11 7 7 9 8 7 7 6 7 6 5 5 6 6 7
3 2 4 6 11 16 17 20 20 11 2 4 9 9 5 5 6 4 5 4 1 1 4 6 5 3 4 5 5 3 4 5 3 3 3 3 5 4 4 4 2 0 3 2 3 3 1 3 5 1 2 2 3 2 2 3 2 2 1 3 1 2 2 1 2 2 4 8 7 7 10 8 8 10 6 2 5 7 7 6 6 7 6 5 5 6 7 8
2 1 3 3 2 12 21 20 13 5 4 6 9 7 3 3 4 3 5 5 3 2 4 5 5 5 6 7 7 5 3 4 4 4 3 3 4 3 3 3 3 1 2 1 3 1 2 1 4 2 2 4 3 2 5 4 3 1 1 3 3 2 1 2 2 1 2 6 7 7 9 7 5 6 3 2 2 5 5 4 6 7 7 7 5 4 7 9
1 1 2 5 2 14 21 13 5 4 5 6 8 9 5 4 3 3 3 4 4 3 2 4 5 6 7 8 7 4 2 3 5 5 4 4 5 5 3 2 4 3 2 3 1 2 1 2 2 3 4 6 7 6 7 7 6 5 5 5 6 5 2 4 5 4 3 5 6 7 9 7 4 7 7 1 1 3 3 3 6 8 10 12 9 9 12 13
1 3 1 6 6 22 16 4 4 3 4 5 5 5 4 4 4 4 3 3 4 3 1 3 6 6 6 7 7 4 3 4 5 5 5 6 7 7 3 3 4 4 2 0 3 3 1 2 2 5 7 9 11 7 5 5 4 3 3 3 3 4 4 6 8 5 4 5 5 7 10 7 5 9 12 10 9 7 3 3 7 9 9 11 13 14 14 13
1 3 4 6 11 21 9 3 6 4 4 4 3 3 3 2 3 3 2 3 4 4 3 3 4 6 6 7 7 6 5 5 7 8 6 5 7 7 1 3 3 4 2 2 3 1 1 2 2 5 5 7 10 5 2 2 3 1 3 4 4 5 6 8 6 3 4 6 6 8 9 5 3 8 10 10 11 9 3 3 2 6 9 12 12 12 12 10
1 3 3 4 6 11 4 4 6 6 6 5 6 8 7 4 5 7 6 4 3 3 3 4 4 5 6 5 6 6 6 5 6 9 7 4 5 3 6 6 2 1 1 2 2 1 1 1 1 2 4 5 7 5 1 1 1 2 5 6 7 8 9 8 4 2 4 8 10 11 10 5 2 5 6 7 9 10 9 7 10 10 9 8 9 10 10 11
2 1 3 5 6 5 3 2 3 3 5 7 8 9 8 6 5 9 10 7 5 4 3 4 3 2 3 3 3 4 5 5 5 5 4 3 3 3 8 7 4 2 1 3 3 2 2 2 3 4 6 7 8 8 4 1 2 2 3 5 7 9 11 9 5 6 7 9 11 11 10 8 5 5 7 8 9 11 12 13 12 9 8 8 8 8 9 9
1 1 1 3 3 2 2 2 1 1 2 4 6 6 9 8 4 4 7 7 7 6 4 5 3 1 2 3 4 5 6 6 5 3 2 4 2 2 4 4 7 4 3 6 7 2 1 2 5 8 10 10 11 12 9 6 4 5 6 7 7 7 9 8 6 8 10 10 11 12 12 13 12 9 7 9 11 12 11 11 10 9 9 9 7 7 7 7
0 1 1 1 1 2 3 3 2 2 3 3 3 3 6 8 5 2 3 3 4 3 3 5 3 4 5 4 5 6 5 6 6 4 5 4 2 3 3 3 6 7 6 5 6 3 1 3 6 10 12 11 12 13 12 12 11 10 10 10 9 9 9 9 10 12 12 11 11 11 12 16 13 6 8 11 11 10 10 10 10 9 8 7 7 8 9 9
0 0 1 1 1 1 2 2 3 3 5 5 2 3 6 8 6 5 3 2 2 2 1 3 3 6 7 4 4 3 3 5 5 3 2 2 2 4 5 2 3 7 7 4 4 3 1 4 5 7 9 7 9 12 11 11 11 9 8 9 10 11 12 13 15 14 12 11 11 11 14 18 12 4 7 8 8 8 8 7 7 7 8 8 9 10 11 11
1 0 2 2 1 1 2 3 4 4 5 5 3 4 8 11 12 9 4 3 4 2 3 6 5 2 2 3 3 3 3 5 5 1 2 2 2 1 3 2 1 5 7 6 3 1 2 3 2 4 7 8 10 11 10 11 12 11 11 10 9 11 15 16 15 13 12 15 16 16 18 16 6 5 4 4 3 3 3 4 6 8 9 9 10 11 11 10
1 0 1 2 1 1 2 2 3 3 3 3 4 5 8 10 10 7 3 4 7 5 3 4 4 4 3 2 2 3 2 0 1 0 2 1 1 1 1 2 1 5 6 4 2 2 3 3 6 7 7 10 12 12 12 12 12 13 13 11 12 16 17 17 15 13 15 17 16 17 17 10 2 5 3 3 2 2 3 3 4 6 8 9 10 10 10 9
1 1 1 1 2 2 0 1 1 2 3 3 4 4 5 6 5 4 2 1 2 1 3 3 4 4 2 3 3 2 1 4 3 1 1 1 1 1 1 1 2 5 5 1 1 2 1 2 6 7 6 9 14 15 14 12 11 12 14 15 19 19 16 15 14 11 11 11 10 11 11 4 2 2 2 3 4 5 5 4 2 3 5 7 8 9 9 9
1 1 1 2 1 2 1 1 1 2 3 2 1 2 1 0 3 4 3 2 5 5 6 5 4 3 2 3 3 1 0 0 2 4 3 4 5 5 5 5 5 4 3 2 2 2 3 3 4 5 5 8 14 14 10 8 9 10 11 13 16 16 14 15 11 4 2 3 4 5 3 0 1 2 2 4 5 5 6 5 2 2 3 5 7 7 8 8
Wind_Direction
359 0 359 358 357 358 359 360 1 1 2 1 0 359 356 356 354 354 352 352 352 351 353 353 359 0 354 350 340 329 320 309 300 284 255 273 286 273 262 263 271 234 209 206 194 175 146 130 148 125 115 84 17 2 24 5 91 66 88 124 236 201 202 192 190 202 192 260 269 290 82 213 286 292 278 3 1 275 280 274 264 275 259 237 242 275 290 181
352 354 353 353 350 352 352 353 355 354 356 355 355 353 351 351 348 349 347 347 347 345 349 348 353 355 354 354 346 340 326 311 303 282 271 296 296 269 257 248 251 235 205 201 204 181 149 181 168 108 73 62 354 4 6 327 110 103 118 157 234 205 213 199 188 200 203 236 263 281 277 226 253 267 13 277 279 303 291 277 273 277 269 259 249 233 211 182
344 345 346 346 344 345 344 344 346 346 349 348 348 346 345 344 341 342 339 340 341 341 342 343 347 348 352 353 350 347 331 322 316 279 287 27 3 291 253 234 236 228 204 204 212 197 184 192 161 111 55 48 340 9 24 347 182 163 130 199 244 216 230 234 207 211 221 238 287 287 287 228 245 243 125 246 280 286 254 260 260 257 260 257 238 190 190 186
336 338 339 340 338 337 337 337 337 338 340 339 339 338 337 337 335 333 332 332 332 333 334 336 340 341 347 351 355 348 338 343 312 223 142 19 1 348 266 219 214 212 202 201 199 198 188 140 135 91 71 75 325 6 188 232 209 175 149 205 236 196 229 242 216 222 236 230 247 277 331 290 262 190 198 225 298 282 244 237 238 241 248 250 235 190 188 189
332 333 335 335 333 331 330 329 329 331 330 332 330 329 330 329 328 325 323 321 321 323 323 326 329 333 338 345 356 353 1 14 279 196 203 330 338 340 288 201 201 202 196 194 166 150 128 117 99 57 81 154 326 39 242 225 139 171 213 228 225 162 228 246 211 223 224 182 222 273 303 284 282 186 207 187 233 262 251 225 224 233 241 246 233 196 189 196
330 331 334 332 331 327 326 324 324 325 323 325 323 322 323 321 320 317 315 312 311 309 309 312 314 320 324 333 349 354 29 306 264 243 292 313 323 327 257 190 194 193 191 187 157 142 122 95 82 90 98 46 197 195 246 228 134 229 250 254 240 193 228 254 202 209 184 176 242 249 281 297 299 280 214 175 219 251 257 232 221 235 236 241 220 172 190 206
329 332 334 333 333 327 326 324 322 322 321 321 321 321 319 317 316 312 309 305 303 302 301 299 300 304 310 321 330 357 87 242 270 278 291 300 304 306 197 189 188 191 192 178 151 144 119 105 145 152 113 331 212 210 237 214 140 236 256 262 252 212 227 251 250 242 218 240 249 255 320 291 267 278 213 182 227 252 260 250 237 252 244 229 210 192 207 211
329 332 334 336 334 330 329 325 323 323 322 322 321 321 318 318 315 311 309 304 303 304 300 295 293 292 298 305 322 357 65 254 274 280 283 286 282 264 198 187 186 194 193 188 172 154 136 142 181 157 136 242 197 188 204 157 169 220 235 248 253 228 239 258 269 267 262 256 247 264 287 267 253 268 276 240 243 256 262 265 252 258 259 229 226 224 220 220
327 330 334 337 336 333 330 327 326 324 323 322 320 320 319 319 315 311 308 304 305 305 304 301 296 289 287 299 96 340 265 263 277 274 271 274 265 230 203 192 191 196 190 197 188 165 164 178 200 191 197 215 173 187 180 178 241 217 222 248 268 269 268 275 273 253 253 252 196 206 262 266 270 286 271 247 241 255 260 269 268 257 259 237 232 232 221 225
327 330 336 337 336 334 331 331 329 327 325 321 320 320 319 318 313 309 305 302 302 303 306 302 298 292 272 210 106 269 264 268 267 256 266 268 252 220 208 205 200 199 188 189 187 175 179 193 193 178 182 171 168 196 161 174 217 199 214 266 256 265 277 254 255 250 242 252 193 194 253 267 306 1 270 243 221 246 254 267 276 249 252 243 234 236 225 225
329 333 335 335 335 334 334 334 333 331 328 324 324 322 320 318 312 308 302 298 297 299 302 300 300 288 249 164 174 249 262 262 254 252 264 263 248 228 223 223 210 201 189 178 195 196 197 195 162 124 181 191 168 191 213 202 192 192 219 298 275 285 293 241 238 253 218 255 201 186 251 279 324 186 251 259 241 210 269 276 282 261 255 253 241 237 229 229
332 333 334 335 336 336 339 339 337 334 329 327 326 323 321 317 312 306 299 294 294 295 296 297 297 273 233 181 222 245 255 254 256 260 261 256 243 230 228 228 219 210 199 188 206 208 209 201 157 154 216 177 145 218 236 217 129 299 62 317 291 332 310 263 246 242 179 212 189 164 263 289 274 240 247 261 271 295 278 279 278 268 265 262 251 238 233 238
331 333 334 336 339 343 345 344 342 337 332 330 328 325 320 314 309 301 294 291 289 291 292 292 284 237 194 257 243 249 254 253 256 259 256 250 239 229 223 219 217 215 212 210 214 207 209 207 173 181 204 151 228 228 129 49 45 302 57 300 297 342 311 267 156 105 160 192 171 151 271 263 250 259 260 263 260 265 273 270 269 268 270 269 263 248 242 244
327 331 333 336 341 345 348 349 346 340 336 334 331 325 318 313 304 294 291 287 284 286 286 283 246 173 162 259 266 266 259 253 251 248 246 241 224 214 212 206 204 201 209 213 201 178 196 201 171 149 211 161 244 281 5 2 10 309 298 241 322 324 286 280 153 137 258 225 161 154 255 251 253 268 272 271 212 227 247 263 269 269 268 272 271 262 257 251
325 328 330 334 339 344 348 348 346 343 340 339 334 327 320 310 299 295 291 284 281 276 266 229 173 147 98 276 273 283 266 253 247 244 245 238 215 199 194 188 190 187 190 193 182 164 168 172 149 131 258 274 47 1 322 337 5 5 283 285 308 200 268 299 277 193 224 265 140 161 236 261 258 264 273 285 145 187 231 254 264 269 268 268 272 269 267 266
326 329 329 333 337 343 346 346 346 344 342 343 337 330 322 310 303 302 293 281 270 239 195 171 165 143 42 277 282 290 264 245 247 248 242 232 221 205 173 163 159 162 171 175 168 163 146 133 119 145 208 304 122 109 16 348 328 340 209 258 268 239 270 311 298 234 199 202 179 205 232 269 262 260 273 283 189 183 224 258 263 268 272 268 270 271 268 273
330 331 331 334 337 343 345 346 346 345 345 347 339 332 326 316 323 326 304 210 149 146 127 147 156 138 264 264 289 284 256 236 243 247 228 219 216 197 160 135 123 135 133 126 143 143 118 98 68 3 55 26 126 109 49 292 277 296 227 234 248 251 263 296 299 294 161 164 216 233 237 251 259 268 283 288 271 243 246 265 269 270 274 270 265 263 262 264
328 328 330 334 338 343 345 346 348 348 347 349 343 335 334 341 6 32 107 123 115 106 84 97 130 119 265 253 263 264 255 219 222 223 207 194 190 182 157 127 125 123 103 68 127 142 356 29 85 38 14 1 141 133 193 231 228 238 239 244 263 253 251 258 270 289 339 224 222 251 252 253 264 272 278 278 278 279 271 266 269 269 269 268 264 257 258 260
322 323 326 332 337 341 343 346 350 351 349 352 349 339 346 23 39 85 106 115 112 115 139 209 164 150 255 246 253 264 338 153 165 150 162 156 161 161 133 112 110 108 109 86 248 186 143 57 86 142 207 232 216 180 203 222 220 230 237 246 267 267 252 247 254 259 290 286 255 253 261 261 268 270 270 272 272 279 281 277 272 266 263 264 263 258 256 258
313 317 320 326 332 335 340 345 350 354 354 356 355 348 16 13 17 40 358 286 223 216 199 212 204 224 276 267 251 237 226 185 171 143 152 153 151 138 99 79 75 73 141 161 200 195 133 164 178 188 210 225 221 197 210 228 237 257 258 256 257 264 267 261 268 270 154 286 255 245 264 267 266 268 266 269 272 273 279 280 275 268 263 262 263 263 258 252
302 307 312 319 325 331 337 342 348 355 358 4 8 14 81 17 352 319 315 281 256 247 249 236 219 241 261 256 219 161 115 247 178 141 158 159 147 142 134 115 117 162 204 148 153 58 130 193 209 213 217 222 215 202 218 238 271 275 253 266 265 252 265 267 273 278 280 259 257 242 267 270 264 270 267 266 268 258 258 268 273 271 267 266 265 263 261 258
291 295 305 311 317 324 331 338 343 351 358 13 28 49 117 319 283 280 294 291 280 252 243 249 239 250 254 254 248 195 59 283 277 183 164 153 147 176 192 129 154 195 162 116 129 237 216 220 226 225 225 354 103 175 203 226 239 251 249 275 274 256 277 274 264 283 318 215 273 274 272 271 260 263 263 256 254 249 245 251 262 270 272 270 263 260 266 275
292 293 300 302 309 316 323 333 336 347 2 15 35 46 346 327 280 282 294 271 287 264 229 238 232 232 243 257 245 190 212 239 248 243 177 151 149 195 155 144 170 155 142 180 198 207 221 234 233 232 231 270 260 124 123 200 235 231 224 250 264 254 276 269 261 316 336 239 276 295 283 274 249 252 258 253 250 250 250 248 255 265 263 260 261 265 279 282
295 298 303 301 305 306 315 328 329 347 2 8 26 15 356 336 296 325 331 265 278 277 244 229 216 209 224 256 212 177 210 219 213 236 178 156 140 160 159 157 152 144 190 206 211 222 234 237 225 218 205 212 239 186 142 216 255 224 210 222 251 250 246 256 287 341 326 285 310 321 298 284 221 224 249 256 252 245 249 252 257 260 256 256 268 279 273 264
288 295 302 303 304 305 312 323 328 351 352 352 8 1 359 348 331 15 6 309 281 288 283 250 206 215 210 160 152 173 188 213 227 218 175 167 150 140 187 162 146 193 206 208 221 240 247 238 168 163 193 195 214 231 196 204 247 251 216 211 235 249 254 265 293 341 339 307 342 14 319 297 193 179 237 262 260 244 245 244 247 253 257 262 276 276 265 256
283 287 294 301 307 314 319 322 330 343 343 345 360 355 355 348 332 349 22 348 286 277 302 265 178 189 185 132 154 160 128 263 267 143 165 181 165 134 149 171 159 209 197 194 222 245 249 235 197 189 195 178 191 243 218 193 236 274 230 207 225 242 255 263 277 315 291 256 290 69 354 289 281 181 229 236 213 242 246 238 245 252 263 273 272 267 270 271
276 280 286 292 301 313 319 303 307 330 334 331 350 351 347 344 335 327 17 349 294 228 130 282 343 103 180 207 174 144 175 267 355 63 123 174 217 105 143 198 198 220 175 143 272 244 201 216 225 204 183 159 182 245 218 178 206 270 229 191 203 219 232 234 229 226 236 270 306 133 144 277 287 257 217 208 190 240 252 244 250 253 259 270 270 272 276 275
263 268 273 282 292 293 287 277 289 307 286 301 334 341 342 342 335 4 46 309 286 127 99 278 123 73 351 4 50 108 199 285 64 321 323 67 221 55 286 221 184 200 176 146 238 249 148 190 209 178 151 171 205 227 177 154 192 253 193 151 167 190 202 170 168 203 250 343 305 218 143 245 279 280 71 110 185 236 251 245 251 260 266 271 273 280 279 279
262 260 262 279 295 284 272 268 264 267 281 294 312 328 343 340 336 57 81 255 279 67 64 323 99 340 354 32 8 39 353 349 88 270 331 77 160 83 183 218 160 196 232 181 232 263 131 211 194 154 150 209 219 214 156 161 200 228 117 96 82 83 92 111 148 145 78 310 253 198 159 208 279 280 82 79 199 227 248 252 260 271 276 274 275 280 280 297
269 265 264 272 280 268 261 263 262 266 275 274 283 327 347 339 352 66 227 241 339 349 272 59 354 329 34 56 328 338 357 321 6 357 11 71 3 37 138 192 116 148 267 285 260 256 243 141 149 158 182 200 171 102 164 172 176 141 101 57 36 32 37 59 57 92 82 279 235 185 181 181 276 284 126 163 226 214 235 278 287 282 274 270 270 272 279 309
272 270 265 261 257 252 244 264 277 270 256 253 271 355 2 0 78 196 234 241 11 304 18 44 332 14 47 66 305 322 1 308 343 71 51 79 39 34 58 217 80 71 332 314 285 271 256 167 205 222 183 134 109 82 359 75 126 133 105 68 20 333 10 29 353 53 170 263 240 187 182 180 233 261 142 255 270 240 217 253 279 284 281 274 274 276 279 306
271 265 257 251 249 246 236 246 286 275 234 229 223 47 53 30 240 222 256 0 351 278 63 2 304 56 51 32 270 269 230 288 291 128 138 134 142 164 191 196 169 348 312 253 272 308 273 212 215 243 186 150 137 141 344 12 107 127 115 130 238 307 340 339 306 103 212 257 264 188 167 201 243 254 265 268 273 256 228 220 249 262 264 271 293 306 305 329
272 265 254 248 244 242 241 246 257 249 207 183 142 51 85 191 245 213 252 326 262 310 67 110 302 120 132 339 290 247 213 230 205 157 154 127 160 240 251 219 171 183 267 223 304 318 283 251 170 145 257 179 151 179 239 259 174 160 154 163 176 207 253 263 255 260 259 266 276 190 163 240 275 274 240 244 257 259 238 230 236 236 244 266 293 306 308 319
281 275 263 253 243 241 243 243 243 227 178 154 126 60 159 227 248 117 171 230 248 328 358 139 17 346 193 254 248 207 219 254 153 121 347 85 118 262 264 243 184 146 212 230 308 249 263 288 196 168 238 176 175 204 202 148 158 184 165 145 175 189 193 230 236 247 264 278 298 236 188 221 259 270 230 232 260 289 258 245 253 249 251 275 296 298 303 308
283 282 279 269 250 240 235 233 232 203 162 138 99 189 221 240 256 184 217 230 259 304 301 302 12 333 291 266 260 220 193 253 53 88 186 167 198 222 220 223 189 154 159 214 264 168 229 271 240 196 165 163 183 221 170 114 136 217 131 116 221 203 177 237 257 229 220 323 283 233 227 231 239 273 266 253 268 279 268 276 315 301 287 302 298 288 295 300
283 286 281 265 252 242 228 222 211 181 160 136 161 226 235 243 222 193 212 200 189 192 327 315 273 252 280 267 279 281 168 192 239 244 220 199 222 229 224 231 186 172 177 187 226 222 251 270 248 93 314 184 180 250 129 143 209 190 127 186 235 176 152 236 283 288 98 266 258 245 259 276 293 287 290 350 309 297 300 304 305 290 296 307 285 276 296 310
286 285 270 251 248 241 227 217 195 174 161 140 215 228 238 230 195 191 193 178 188 147 109 283 240 204 250 259 269 282 183 213 220 207 230 230 245 210 207 261 204 186 203 215 236 238 251 273 257 152 226 255 156 69 317 331 132 135 174 221 226 116 133 161 266 329 274 253 257 260 264 276 290 280 324 29 352 337 328 312 306 299 296 280 268 274 295 301
291 283 269 257 249 236 221 206 186 169 150 169 228 237 235 220 209 186 169 164 205 179 174 235 238 211 226 245 255 215 186 223 177 160 209 224 232 184 172 249 217 195 232 256 322 281 243 265 281 122 183 288 3 61 302 328 98 139 210 268 94 219 248 140 175 227 239 247 249 244 256 267 261 261 292 324 306 314 322 312 311 300 285 278 291 311 315 308
290 273 278 271 249 228 207 189 175 164 156 208 230 239 225 230 232 195 183 186 169 188 219 238 242 246 245 240 251 237 202 205 177 184 211 212 232 193 167 235 219 263 304 124 168 277 33 242 274 44 92 322 357 92 196 287 331 97 316 329 56 186 227 182 179 198 233 251 257 242 247 252 246 261 295 306 266 288 308 310 302 286 276 283 301 317 323 326
280 263 266 333 317 205 189 174 164 172 206 212 231 236 226 247 245 228 221 217 215 215 234 239 225 235 255 254 255 256 230 213 200 210 218 216 245 234 198 217 165 122 332 97 166 241 53 211 244 273 332 317 301 190 179 211 229 169 262 272 256 230 252 266 235 179 224 256 261 251 247 244 246 275 295 128 173 283 295 313 311 301 295 289 282 299 329 351
314 237 254 346 4 175 170 164 170 199 207 226 244 242 249 265 261 281 258 211 224 251 242 226 218 231 253 258 254 233 207 226 213 212 231 228 242 250 226 178 150 149 56 48 129 208 197 205 223 258 281 272 251 218 195 194 184 183 202 213 226 224 236 275 257 215 211 250 256 258 260 255 260 290 296 298 142 289 295 324 317 309 309 316 335 2 8 15
247 199 311 357 174 169 162 175 210 193 212 227 239 239 249 264 254 261 249 195 212 244 275 238 225 233 241 247 252 225 201 235 213 210 237 223 222 234 216 115 115 127 100 17 241 234 167 125 190 238 248 258 257 236 201 184 140 144 210 199 204 191 175 226 248 239 233 246 253 261 262 251 240 270 287 290 281 277 246 243 292 307 330 354 10 18 20 22
223 234 331 0 178 174 167 225 208 207 233 240 285 262 243 265 254 247 232 207 211 220 242 238 228 235 229 231 243 225 212 224 212 219 236 223 230 243 211 77 82 104 110 260 261 274 90 116 227 248 250 273 275 257 176 92 72 55 253 220 209 212 211 228 241 248 249 247 251 261 258 242 226 256 274 291 296 301 281 217 304 6 24 29 22 18 19 17
324 273 299 324 217 198 202 217 212 223 225 236 262 249 246 251 242 249 249 220 202 219 242 244 244 251 239 229 236 228 222 226 225 232 232 220 246 297 40 43 36 115 159 260 262 254 241 179 186 275 277 284 285 271 247 32 100 226 247 238 231 239 251 265 273 266 255 241 239 254 261 249 257 285 291 300 303 308 324 15 57 56 42 35 23 15 14 11
343 284 250 285 268 246 247 240 243 243 232 242 247 241 248 246 226 240 246 238 224 220 248 268 269 279 272 270 283 269 242 233 247 250 230 229 258 8 31 33 52 82 51 4 354 298 251 222 203 246 261 261 269 267 267 256 173 198 250 243 235 231 234 251 267 254 252 240 231 246 266 266 272 289 293 307 324 335 352 20 47 53 37 34 31 19 14 12
5 304 280 296 286 253 264 298 312 258 259 265 258 246 245 251 255 227 224 238 239 222 232 257 243 207 246 243 256 268 250 232 244 262 266 272 279 359 0 35 58 40 27 28 12 354 224 259 238 240 249 255 264 272 289 302 271 264 273 257 249 242 229 232 245 247 257 261 251 252 266 272 273 282 313 350 5 5 5 13 26 31 26 23 20 16 17 17
111 237 220 306 300 243 252 299 313 259 278 291 278 269 254 260 284 261 211 235 254 241 254 254 223 217 233 232 235 246 240 230 239 251 264 272 276 308 323 64 59 23 28 28 3 29 92 287 260 252 256 261 276 289 302 305 292 283 285 278 274 274 260 248 249 254 261 265 263 264 273 277 279 311 13 16 11 7 8 6 8 15 16 13 14 13 13 12
132 240 280 297 285 245 241 300 337 310 295 296 303 306 284 273 272 272 277 310 339 23 309 270 242 223 235 259 263 252 258 257 255 254 274 327 347 327 340 32 52 30 35 13 355 62 124 263 261 271 284 296 304 305 306 304 299 295 292 287 285 282 275 265 262 267 272 269 274 287 288 286 294 12 41 23 7 2 5 359 354 3 9 11 14 13 12 8
41 271 306 332 301 285 316 330 349 342 299 288 289 271 269 269 267 270 286 309 302 280 231 257 276 267 265 281 245 226 255 266 269 261 94 25 340 316 339 337 26 42 31 6 351 56 227 267 299 310 313 315 302 295 296 296 295 293 286 284 285 278 271 269 271 276 277 272 275 282 279 280 306 39 32 18 15 338 333 350 359 8 9 8 10 11 9 4
61 188 319 3 324 276 342 340 326 328 298 268 254 249 254 262 271 285 296 272 272 264 231 257 309 2 5 333 266 238 230 178 280 8 99 66 341 29 342 285 325 2 357 352 330 298 270 306 337 338 319 301 291 286 286 286 286 290 292 289 280 272 269 272 276 275 271 271 275 275 271 270 55 60 341 329 341 311 330 2 12 14 8 6 7 4 358 354
105 34 45 27 303 250 128 45 317 278 270 240 230 250 256 254 277 321 329 292 299 12 83 39 357 3 357 331 334 318 39 80 104 156 125 165 237 283 285 257 322 336 328 295 271 314 295 307 327 323 299 288 289 288 289 294 295 289 283 276 270 268 269 269 270 271 272 277 285 280 271 271 48 17 311 323 335 345 347 339 353 10 4 5 4 355 347 345
125 339 107 119 285 259 168 60 317 239 247 245 258 320 294 244 18 352 295 65 80 95 91 59 357 347 332 304 325 32 81 48 194 203 202 205 221 231 226 232 245 254 256 258 261 259 255 267 289 285 278 276 277 284 305 323 307 280 265 259 258 261 266 265 268 309 330 271 276 280 264 123 316 294 330 331 328 343 336 317 314 330 339 357 357 345 336 333